カタログに戻る

STARLINK-11183

運用中通信VLEO
NORAD 60189·PAYLOAD·🇺🇸 United States

打ち上げ Jul 3, 2024 から Cape Canaveral Space Force Station

Loading…

次のパス (今後24時間)

TLE

最新Source: CelesTrak SupGP

元期: Sep 15, 2026, 02:22 UTC

1 60189C 24124G   26258.09909722  .00039368  00000+0  32428-3 0  2586
2 60189  53.1566 307.8469 0001109  80.4861 102.4804 15.69690705    15

AllMySatでSTARLINK-11183をリアルタイム追跡

Download on the App Store